This demonstration page uses our WeatherBlox Daily Observations layout. Learn more.

Left ArrowRight Arrow

Hourly Observations for April 15, 2020

Temp ( °F °C ) Dew Point ( °F °C ) Humidity (%) Winds ( mph kmh ) Pressure ( in mb ) Visibility ( mi km ) Precip ( " mm )
12:51 am 00:51 Clear 50 10 20 -6.7 30 30 NNW 6 9 29.99 1016 10 16.0934 0 0
1:51 am 01:51 Clear 43 6.1 17 -8.3 35 35 E 5 7 29.99 1016 10 16.0934 0 0
2:51 am 02:51 Clear 42 5.6 16 -8.9 35 35 Calm 29.99 1016 10 16.0934 0 0
3:51 am 03:51 Clear 41 5 18 -7.8 39 39 Calm 29.99 1016 10 16.0934 0 0
4:51 am 04:51 Clear 41 5 19 -7.2 41 41 Calm 30.01 1016 10 16.0934 0 0
5:51 am 05:51 Sunny 38 3.3 17 -8.3 43 43 NNE 3 6 30.03 1017 10 16.0934 0 0
6:51 am 06:51 Sunny 46 7.8 20 -6.7 35 35 Calm 30.03 1017 10 16.0934 0 0
7:51 am 07:51 Sunny 52 11.1 20 -6.7 28 28 Calm 30.03 1017 10 16.0934 0 0
8:51 am 08:51 Sunny 60 15.6 20 -6.7 21 21 NW 5 7 30.03 1017 10 16.0934 0 0
9:51 am 09:51 Sunny 65 18.3 20 -6.7 18 18 VRB 5 7 30.02 1017 10 16.0934 0 0
10:51 am 10:51 Sunny 68 20 18 -7.8 15 15 Calm 29.99 1016 10 16.0934 0 0
11:51 am 11:51 Sunny 69 20.6 13 -10.6 11 11 VRB 5 7 29.96 1015 10 16.0934 0 0
12:51 pm 12:51 Sunny 72 22.2 13 -10.6 10 10 VRB 5 7 29.92 1013 10 16.0934 0 0
1:51 pm 13:51 Sunny 75 23.9 17 -8.3 11 11 W 12 19 29.9 1013 10 16.0934 0 0
2:51 pm 14:51 Sunny 75 23.9 17 -8.3 11 11 W 10 17 29.87 1012 10 16.0934 0 0
3:51 pm 15:51 Sunny 75 23.9 16 -8.9 10 10 SW 7 11 29.85 1011 10 16.0934 0 0
4:51 pm 16:51 Sunny 77 25 16 -8.9 10 10 WNW 14 22 29.83 1010 10 16.0934 0 0
5:51 pm 17:51 Sunny 75 23.9 14 -10 10 10 WNW 12 19 29.83 1010 10 16.0934 0 0
6:51 pm 18:51 Clear 71 21.7 16 -8.9 12 12 NW 13 20 29.82 1010 10 16.0934 0 0
7:51 pm 19:51 Clear 64 17.8 16 -8.9 15 15 NW 7 11 29.84 1010 10 16.0934 0 0
8:51 pm 20:51 Clear 60 15.6 16 -8.9 18 18 WNW 8 13 29.86 1011 10 16.0934 0 0
9:51 pm 21:51 Clear 57 13.9 16 -8.9 20 20 NNW 8 13 29.86 1011 10 16.0934 0 0
10:51 pm 22:51 Clear 56 13.3 14 -10 19 19 W 10 17 29.85 1011 10 16.0934 0 0
11:51 pm 23:51 Clear 55 12.8 16 -8.9 21 21 SE 3 6 29.86 1011 10 16.0934 0 0

Powered by AerisWeather